sat.trackr.live / text

‹ back to catalog

PELICAN-3

NORAD 65315 · 2025-188A

PAYLOAD ACTIVE UNKNOWN

§ Identity

Operator
Country
US
Launch date
2025-08-26
Launch site
AFWTR
Launch vehicle
Mass (kg)
RCS (m²)

Purposes: earth_obs

External: N2YO · Heavens-Above · Gunter

§ Orbital elements

Epoch: 2026-05-25T02:54:44.168256Z

Period
93.46 min
Inclination
97.1970°
Eccentricity
0.0002589
Mean motion
15.40806510 rev/d
Perigee alt
442.0 km
Apogee alt
445.5 km
Semi-major
6,821.9 km
B*
1.9255e-4
RAAN
221.6194°
Arg perigee
106.0556°
Mean anomaly
254.0976°
Rev number
4,176

§ Raw data

PELICAN-31 65315U 25188A   26145.12134454  .00007807  00000+0  19255-3 0  99922 65315  97.1970 221.6194 0002589 106.0556 254.0976 15.40806510 41768

JSON: /api/v1/satellites/65315 · /tle

For live sub-satellite position, see the globe view (requires WebGL).

§ Visibility from observer

Set your observer location to see the next 7 days of passes ≥ 10°. The values pass through the URL so the page stays shareable.

No JS? Fill the form by hand. The geolocation button needs JavaScript.